153  
ASUS43 KLMK 222110  
RWRKY  
KENTUCKY REGIONAL WEATHER ROUNDUP  
NATIONAL WEATHER SERVICE LOUISVILLE KY  
500 PM EDT SAT JUN 22 2024  
 
NOTE "FAIR" INDICATES FEW OR NO CLOUDS BELOW 12,000 FEET  
WITH NO SIGNIFICANT WEATHER AND/OR S TO VISIBILITY
.  
 
KYZ001>023-026-027-061>063-070>075-222200-  
WESTERN AND SOUTH CENTRAL KENTUCKY  
 
CITY SKY/WX TMP DP RH WIND PRES REMARKS
 
PADUCAH MOSUNNY 91 68 46 VRB6 29.96F HX 95  
HENDERSON SUNNY 92 68 45 SW10 29.97F HX 96  
OWENSBORO SUNNY 93 67 42 W13 29.97F HX 96  
HOPKINSVILLE SUNNY 93 66 41 SW12 29.98F HX 95  
BOWLING GREEN PTSUNNY 94 68 42 NW7 29.98F HX 98  
GLASGOW MOSUNNY 91 71 50 SW7 30.00F HX 97  

 
 
KYZ024-025-028>034-038-045-046-053-222200-  
NORTH CENTRAL KENTUCKY  
 
CITY SKY/WX TMP DP RH WIND PRES REMARKS
 
LOUISVILLE/SDF PTSUNNY 94 67 41 SW10 29.96F HX 97  
LOUISVILLE/LOU MOSUNNY 93 70 46 SW10 29.96F HX 99  
FORT KNOX MOSUNNY 93 71 48 SW14 29.97F HX 99  

 
 
KYZ035>037-039>044-047>052-055>060-089>105-222200-  
NORTHEAST KENTUCKY  
 
CITY SKY/WX TMP DP RH WIND PRES REMARKS
 
LEXINGTON MOSUNNY 93 68 43 W10 30.00F HX 97  
COVINGTON PTSUNNY 92 66 42 W12 29.97F HX 94  
FRANKFORT MOSUNNY 93 67 42 SW10 29.98F HX 96  

 
 
KYZ054-064>069-076>088-106>120-222200-  
SOUTHEAST KENTUCKY  
 
CITY SKY/WX TMP DP RH WIND PRES REMARKS
 
JACKSON MOSUNNY 91 68 46 VRB3 30.03F HX 95  
LONDON MOSUNNY 89 69 51 SE8G21 30.03F HX 93  
SOMERSET SUNNY 91 70 49 SW6 30.00F HX 97  
MIDDLESBORO SUNNY 91 69 48 CALM 30.05F HX 95  
MONTICELLO MOSUNNY 92 66 42 S6 30.04F HX 94  

 
 
 
 
CLICK HERE TO GO TO PREVIOUS BULLETINS.

The Nexlab KY Page Main Text Page